Flag for Poland Past Weather in Jastrzębie Zdrój, Poland — Yesterday and Last 2 Weeks

Now
64 °F

Passing clouds.


Feels Like: 64 °F
Forecast: 56 / 72 °F
Wind: N/A

Location: Ostrava / Mosnov

Current Time: Aug 23, 2016 at 11:11:00 PM

Latest Report: Aug 23, 2016 at 10:00 PM


Visibility: 14 mi

Pressure: 30.32 "Hg

Humidity: 83%

Dew Point: 59 °F

Location of Jastrzębie ZdrójLocation

Past Weather in Jastrzębie Zdrój — Graph

°F

Jastrzębie Zdrój Temperature Yesterday

Maximum temperature yesterday: 67 °F (at 5:00 PM)
Minimum temperature yesterday: 59 °F (at 6:00 AM)
Average temperature yesterday: 62 °F

High & Low Weather Summary for the Past Weeks

 TemperatureHumidityPressure
High81 °F (Aug 14, 5:00 PM)98% (Aug 15, 4:00 AM)30.38 "Hg (Aug 15, 4:00 AM)
Low45 °F (Aug 12, 4:00 AM)45% (Aug 12, 2:00 PM)29.82 "Hg (Aug 18, 5:00 PM)
Average63 °F76%30.09 "Hg
* Reported Aug 8 9:00 PM — Aug 23 9:00 PM, Jastrzębie Zdrój, Weather by CustomWeather, © 2016

Note: Actual official high and low records may vary slightly from our data, if they occured in-between our weather recording intervals... More about our weather records

Advertising

Jastrzębie Zdrój Weather History for the Previous 24 Hours

Scroll right to see more
 ConditionsComfort  
Time TempWeatherWind HumidityBarometerVisibility
9:00 PM
Tue, Aug 23
66 °FPassing clouds.1 mph76%30.32 "Hg22 mi
8:00 PM69 °FPassing clouds.2 mph74%30.29 "Hg22 mi
7:00 PM72 °FPartly sunny.2 mph66%30.28 "Hg25 mi
6:00 PM73 °FOvercast.3 mph61%30.29 "Hg25 mi
5:00 PM74 °FOvercast.5 mph56%30.27 "Hg25 mi
4:00 PM74 °FPartly sunny.3 mph54%30.27 "Hg28 mi
3:00 PM75 °FScattered clouds.5 mph50%30.28 "Hg28 mi
2:00 PM75 °FScattered clouds.5 mph49%30.29 "Hg28 mi
1:00 PM72 °FScattered clouds.3 mph54%30.30 "Hg25 mi
12:00 PM71 °FPassing clouds.3 mph61%30.32 "Hg25 mi
11:00 AM68 °FPassing clouds.N/A68%30.33 "Hg25 mi
10:00 AM65 °FPassing clouds.N/A73%30.34 "Hg16 mi
9:00 AM61 °FPassing clouds.N/A83%30.35 "Hg9 mi
8:00 AM57 °FFog.N/A92%30.37 "Hg7 mi
7:00 AM51 °FFog.N/A97%30.38 "Hg1 mi
6:00 AM50 °FFog.N/A97%30.37 "Hg0 mi
5:00 AM51 °FPassing clouds.N/A96%30.35 "Hg9 mi
4:00 AM53 °FPassing clouds.1 mph97%30.34 "Hg12 mi
3:00 AM53 °FPassing clouds.N/A96%30.34 "Hg12 mi
2:00 AM54 °FClear.2 mph94%30.34 "Hg12 mi
1:00 AM55 °FClear.1 mph94%30.34 "Hg12 mi
12:00 AM55 °FClear.1 mph92%30.34 "Hg12 mi
Weather by CustomWeather, © 2016

See weather overviewHow to use our weather pages